Other Public Products
Issued by NWS Grand Forks, ND

Home | Current Version | Previous Version | Graphics & Text | Print | Product List | Glossary On
Versions: 1 2 3 4 5 6 7 8 9 10 11 12 13 14 15 16 17 18 19 20 21 22 23 24 25 26 27 28 29 30 31 32 33 34 35 36 37 38 39 40 41 42 43 44 45 46 47 48 49 50
000
FPUS83 KFGF 281510
OPUFGF
PRAIRIE TO PINES WEATHER ROUNDUP
NATIONAL WEATHER SERVICE EASTERN NORTH DAKOTA/GRAND FORKS ND
900 AM CST SAT FEB 28 2015

 **SATELLITE DATA USED TO AUGMENT SKY COVER AT AUTOMATED STATIONS**
 *****  WEATHER ACROSS EASTERN NORTH DAKOTA  *****

CITY           SKY/WX    TMP DP  RH WIND       PRES   REMARKS
GRAND FORKS    CLOUDY     6  -1  73 S16       30.21S WCI -12
GRAND FORKS AF CLOUDY     6  -2  70 S12       30.19S WCI  -9
GRAND CITY NWS   N/A      7 N/A N/A S10         N/A  WCI  -8
BUXTON         NOT AVBL
DEVILS LAKE    PTSUNNY    7   0  72 CALM      30.10R
FARGO          SUNNY      9   0  67 S16       30.27R WCI  -8
WAHPETON ARPT  MOSUNNY   10   1  67 S17G23    30.30S WCI  -7
$$

 *****  WEATHER ACROSS CENTRAL AND WESTERN NORTH DAKOTA  *****

CITY           SKY/WX    TMP DP  RH WIND       PRES   REMARKS
JAMESTOWN      MOSUNNY    7   0  73 S15       30.12S WCI -10
BISMARCK       CLOUDY    13   5  70 CALM      30.09R
MINOT          CLOUDY     5  -2  72 W14       30.08R WCI -12
MINOT AFB      CLOUDY     4  -1  82 NW14      30.08R WCI -14
GARRISON         N/A     12   5  73 NW12      30.06R WCI  -2
WILLISTON      CLOUDY     3  -4  72 VRB6      30.16S WCI  -8
DICKINSON      CLOUDY     8   3  80 NW23      30.06R WCI -13
HETTINGER      MOSUNNY   10   4  76 W17       30.07R WCI  -8
$$

 *****  OTHER OBSERVATIONS NORTHEAST NORTH DAKOTA  *****

CITY           SKY/WX    TMP DP  RH WIND       PRES   REMARKS
WALHALLA         N/A      7   1  78 SE8       30.15F WCI  -6
LANGDON        NOT AVBL
CAVALIER       FAIR       5   0  78 S5        30.17S WCI  -4
GRAFTON        NOT AVBL
CANDO          CLOUDY     9   3  78 SE6       30.08S WCI  -1
FORT TOTTEN      N/A      7  -2  67 S8        29.95S WCI  -6
ROLLA          PTSUNNY    7   0  72 SW5       30.05S WCI  -2
RUGBY          PTSUNNY    7   1  78 S3        30.06S
 ***** THE ABOVE OBSERVATIONS ARE NON NWS ARE NOT QUALITY
        CONTROLLED AND MAY MIS-REPORT RAIN FOR SNOW...
$$

 *****  OTHER OBSERVATIONS SOUTHEAST NORTH DAKOTA *****

CITY           SKY/WX    TMP DP  RH WIND       PRES   REMARKS
COOPERSTOWN    NOT AVBL
VALLEY CITY    FLURRIES   9   1  72 S18G25    30.16S WCI -10
OAKES            N/A      9   1  72 S20       30.20F WCI -11
GWINNER        SUNNY     14   3  62 S17       30.23R WCI  -3
SHEYENNE NWR     N/A      9  -1  63 S7        29.95S WCI  -2
BUFFALO        NOT AVBL
WYNDMERE         N/A      9   0  66 S8          N/A  WCI  -4
 ***** THE ABOVE OBSERVATIONS ARE NON NWS ARE NOT QUALITY
       CONTROLLED AND MAY MIS-REPORT RAIN FOR SNOW...
$$

  *****  WEATHER ACROSS NORTHERN MINNESOTA  *****

CITY           SKY/WX    TMP DP  RH WIND       PRES   REMARKS
FLAG ISLAND    PTSUNNY   -2  -8  78 S9        30.21F WCI -18
WARROAD        PTSUNNY    9   0  66 SW3       30.21S
ROSEAU         PTSUNNY    9   0  66 S13       30.20F WCI  -7
HALLOCK        NOT AVBL
THF RVR FALLS  MOSUNNY    9   1  72 S13       30.21S WCI  -7
HALSTAD        NOT AVBL
FOSSTON        MOSUNNY   10   0  61 S15       30.23F WCI  -6
BAUDETTE       MOSUNNY    3  -4  72 S7        30.22S WCI  -9
WASKISH        MOSUNNY    9   0  66 SE9G17    30.24S WCI  -5
CROOKSTON      MOSUNNY   10   3  72 S22       30.25R WCI  -9
$$
  *****  WEATHER ACROSS CENTRAL AND WEST MINNESOTA  *****

CITY           SKY/WX    TMP DP  RH WIND       PRES   REMARKS
BEMIDJI        PTSUNNY    2  -4  75 S6        30.26S WCI  -9
PARK RAPIDS    PTSUNNY    2  -4  76 S8        30.29R WCI -12
WADENA         PTSUNNY    3  -2  78 S8        30.31S WCI -10
DETROIT LAKES  PTSUNNY    9   1  72 S13       30.27S WCI  -7
MOORHEAD       MOSUNNY    9   3  78 S17       30.28S WCI -10
FERGUS FALLS   PTSUNNY    7  -2  66 S15       30.35R WCI -11
ELBOW LAKE     FAIR       6   0  76 S17       30.31S WCI -13
MORRIS MN      MOSUNNY    7   0  72 S16       30.33F WCI -11
STAPLES        PTSUNNY    3  -2  78 S9        30.34R WCI -11
WHEATON        MOSUNNY    5   0  78 S7        30.34R WCI  -7
$$
  *****  WEATHER ELSEWHERE ACROSS MINNESOTA  *****

CITY           SKY/WX    TMP DP  RH WIND       PRES   REMARKS
DULUTH         SUNNY      4  -3  73 SW10      30.39R WCI -11
INTRNTL FALLS  PTSUNNY    6  -3  66 VRB5      30.27S WCI  -3
ELY            NOT AVBL
CLOQUET        SUNNY      3  -2  78 S8        30.40R WCI -10
BRAINERD       PTSUNNY    5  -2  72 S12       30.37S WCI -11
HIBBING        PTSUNNY   -2 -10  69 VRB3      30.36R
ALEXANDRIA     PTSUNNY    7  -2  66 S15       30.34R WCI -10
SAINT CLOUD    SUNNY      5  -2  72 S12       30.44S WCI -11
MINNEAPOLIS    MOSUNNY    4  -2  76 S3        30.54R
$$

  *****  WEATHER ACROSS SOUTH DAKOTA  *****

CITY           SKY/WX    TMP DP  RH WIND       PRES   REMARKS
SIOUX FALLS    MOSUNNY    9   1  70 S14       30.37R WCI  -7
BROOKINGS      NOT AVBL
WATERTOWN      SUNNY      7   0  73 S13       30.25S WCI  -9
HURON          SUNNY      9   2  73 S14       30.28R WCI  -7
SISSETON         N/A     12   3  67 SW17      30.27R WCI  -5
ABERDEEN       SUNNY     10   1  67 S16       30.23S WCI  -7
MITCHELL       SUNNY     13   5  70 S13       30.32R WCI  -2
PIERRE         SUNNY     14   6  70 SE9       30.16R WCI   2
MOBRIDGE       MOSUNNY   13   5  70 S9        30.09R WCI   1
RAPID CITY     SUNNY     16   5  62 N21       30.08R WCI  -1
$$

  *****  SOME WEATHER IN NEARBY STATES *****

CITY           SKY/WX    TMP DP  RH WIND       PRES   REMARKS
GLASGOW MT     CLOUDY    11   3  70 NW14      30.17R WCI  -5
GREAT FALLS MT LGT SNOW  12   9  87 SW6       30.14S FOG     WCI   3
CHEYENNE WY    MOSUNNY   12   5  73 N10       29.90R WCI  -1
SCOTTSBLUFF NE SUNNY     13   5  70 N3        30.05R
OMAHA NE       MOSUNNY   13   5  70 S13       30.51R WCI  -2
DES MOINES IA  MOSUNNY    9  -2  61 SE6       30.56S WCI  -1
DAVENPORT IA   SUNNY      2  -4  76 SE7       30.67R WCI -11
CHICAGO IL     MOSUNNY    4  -2  76 S5        30.71S WCI  -5
EAU CLAIRE WI  SUNNY      1  -5  75 S7        30.57S WCI -12
LA CROSSE WI   SUNNY     -2  -9  72 S7        30.65R WCI -15
$$

  *****  SOME NATIONAL WEATHER *****

CITY           SKY/WX    TMP DP  RH WIND       PRES   REMARKS
LA GUARDIA NY  MOSUNNY   19   0  43 NE5       30.82S WCI  12
RALEIGH NC     PTSUNNY   28  12  51 NE12      30.79R WCI  18
ATLANTA GA     PTSUNNY   41  31  67 E15       30.58R
NEW ORLEANS LA PTSUNNY   45  31  58 NE15      30.42R
OKLAHOMA CITY  LGT SNOW  21  15  78 E8        30.39R VSB 1   WCI  11
ALBUQUERQUE NM FLURRIES  21  18  88 N9        29.92R WCI  11
SALT LAKE CITY MOCLDY    31  24  75 CALM      29.67R
LOS ANGELES CA MOCLDY    54  44  69 W5        29.80R
BOISE ID       CLOUDY    36  32  85 W5        29.78R
SEATTLE WA     CLEAR     38  31  76 N10       30.11R
$$

*** WEATHER ACROSS MANITOBA...SASKATCHEWAN AND ONTARIO ***
                ***ONTARIO***

CITY           SKY/WX    TMP DP  RH WIND       PRES   REMARKS
GERALDTON      PTSUNNY   10  -4  52 SW13G20   30.29R WCI  -5
THUNDER BAY    PTSUNNY    7  -8  51 NW5       30.43S WCI  -2
SIOUX LOOKOUT  PTSUNNY    3  -6  66 S10       30.22S WCI -12
TORONTO        SUNNY     10   1  67 W8        30.75S WCI  -1
BIG TROUT LK   FLURRIES   9   3  78 W10G17    30.03S WCI  -6
PICKLE LAKE    PTSUNNY    5  -4  66 SW10      30.15R WCI -10
DRYDEN         MOSUNNY    3  -4  72 S12       30.22R WCI -13
KENORA         PTSUNNY    1  -4  78 S12       30.19S WCI -15
$$
                *** MANITOBA***

CITY           SKY/WX    TMP DP  RH WIND       PRES   REMARKS
BRANDON        CLOUDY     1  -4  78 W6        30.10R WCI -10
DAUPHIN        SUNNY      1  -6  71 W13       30.13R WCI -16
ISLAND LAKE    CLOUDY     9   1  72 SW7       30.05R WCI  -3
PILOT MOUND      N/A      1  -2  85 S6          N/A  WCI -10
THE PAS        PTSUNNY    3  -4  72 W8        30.06S WCI -10
THOMPSON       PTSUNNY    9   1  72 SW14      29.92F WCI  -8
WINNIPEG       PTSUNNY    3  -4  72 S10       30.17R WCI -12
LYNN LAKE      FLURRIES   5   1  85 W12       29.82F WCI -11
CHURCHILL      LGT SNOW  10   5  79 W18G25    29.70S DRFTSNOWWCI  -8
GILLAM         FLURRIES  12   5  73 SW17      29.88F WCI  -5
$$
                ***SASKATCHEWAN***

CITY           SKY/WX    TMP DP  RH WIND       PRES   REMARKS
ESTEVAN        NOT AVBL
KINDERSLEY     PTCLDY    -4  -8  84 SW8       30.13S WCI -19
LLOYDMINSTER   PTCLDY     3   0  85 W16       30.06F WCI -16
PRINCE ALBERT  PTCLDY   -13 -17  84 SW3       30.09F
REGINA         MOSUNNY  -15 -18  84 W5        30.15R WCI -27



USA.gov is the U.S. government's official web portal to all federal, state and local government web resources and services.